[[{"header":{"parameterUnit":"m.s-1","parameterCategory":1,"la1":30.2991,"la2":30.254,"lo1":-89.0895,"lo2":-89.0444,"dy":0.0017,"dx":0.0017,"nx":28,"ny":28,"refTime":"2024-02-29T09:00:00:Z","depth":0,"parameterNumber":2,"parameterNumberName":"U-component_of_WINDS"},"data":[0,0,0,0,0,0,0,0,0,0,0,0,0,0,0,0,0,0,0,0,0,0,0,0,0,0,0,0,0,0,0,0,0,0,0,0,0,0,0,0,0,0,0,0,0,0,0,0,0,0,0,0,0,0,0,0,0,0,-5.066,-5.066,0,-5.0691,-5.0691,-5.0692,-5.0562,-5.0558,-5.0554,-5.055,-5.0583,-5.0587,-5.0591,0,0,0,0,0,0,0,0,0,0,0,0,0,-5.0487,-5.0491,-5.066,-5.066,-5.066,-5.0691,-5.0691,-5.0692,-5.0562,-5.0558,-5.0553,-5.0549,-5.0581,-5.0587,-5.0592,0,0,0,0,0,0,0,0,0,0,0,0,0,-5.0545,-5.0492,-5.066,-5.0599,-5.0594,-5.0691,-5.0691,-5.0692,-5.0563,-5.0557,-5.0552,-5.0546,-5.058,-5.0586,-5.0593,-5.0749,0,0,-5.0613,-5.0616,0,0,0,0,0,0,0,0,-5.0541,-5.0551,-5.0608,-5.0604,-5.0598,-5.0616,-5.0642,-5.0711,-5.0565,-5.0575,-5.055,-5.0544,-5.0599,-5.0603,-5.0622,-5.075,-5.0752,-5.0614,-5.0618,-5.062,-5.0622,0,0,0,0,0,0,0,-5.0538,-5.0549,-5.0672,-5.0609,-5.0603,-5.0571,-5.0572,-5.0655,-5.0619,-5.0574,-5.0564,-5.057,-5.0595,-5.0616,-5.0622,-5.0752,-5.0613,-5.0619,-5.0623,-5.0626,-5.101,-5.1016,0,0,0,0,0,0,-5.0542,-5.0546,-5.0671,-5.0673,-5.0555,-5.0578,-5.058,-5.0616,-5.0617,-5.0612,-5.0575,-5.0564,-5.0607,-5.0614,-5.0622,-5.0806,-5.062,-5.0627,-5.063,-5.1004,-5.1011,-5.1018,0,0,0,0,0,0,-5.0538,-5.0554,-5.067,-5.0607,-5.0619,-5.0588,-5.0629,-5.062,-5.0641,-5.0618,-5.0611,-5.0603,-5.0603,-5.0613,-5.0718,-5.0805,-5.063,-5.0636,-5.0996,-5.1006,-5.1014,-5.1173,0,0,0,0,0,0,-5.0534,-5.0554,-5.0613,-5.0609,-5.0623,-5.0766,-5.0634,-5.0625,-5.0653,-5.0639,-5.0643,-5.0638,-5.0599,-5.0709,-5.0725,-5.0811,-5.0641,-5.0988,-5.1001,-5.1012,-5.116,-5.1187,-5.121,0,0,0,0,0,-5.0528,-5.0656,-5.0616,-5.0632,-5.0697,-5.0771,-5.0779,-5.0732,-5.066,-5.0719,-5.0705,-5.0638,-5.0792,-5.0721,-5.0738,-5.0827,-5.0983,-5.0997,-5.1011,-5.1149,-5.1182,-5.1209,0,0,0,0,0,0,-5.0671,-5.0655,-5.061,-5.0741,-5.0759,-5.0749,-5.0822,-5.0768,-5.0806,-5.0791,-5.0731,-5.0733,-5.0849,-5.0848,-5.0768,-5.0978,-5.0875,-5.0893,-5.0975,-5.1006,-5.103,-5.1028,-5.0646,0,0,0,0,0,-5.0718,-5.0779,-5.0762,-5.0879,-5.089,-5.0855,-5.0886,-5.0848,-5.0863,-5.087,-5.0863,-5.088,-5.0933,-5.0969,-5.1015,-5.1159,-5.1158,-5.1228,-5.1253,-5.1274,-5.129,-5.1366,-5.1398,-5.1064,-5.1064,-5.1063,0,0,-5.0815,-5.0813,-5.0856,-5.0908,-5.0916,-5.0982,-5.0862,-5.0936,-5.0984,-5.0881,-5.098,-5.0976,-5.0991,-5.1116,-5.1171,-5.1119,-5.1382,-5.1291,-5.1308,-5.1314,-5.1384,-5.1416,-5.1444,-5.1073,-5.1071,-5.107,0,0,-5.1026,-5.1031,-5.1129,-5.114,-5.1155,-5.1131,-5.1155,-5.1153,-5.1146,-5.1245,-5.1169,-5.1224,-5.1316,-5.133,-5.135,-5.1565,-5.1505,-5.1582,-5.1712,-5.1787,-5.1813,-5.1836,-5.1914,-5.1943,-5.1598,-5.1599,-5.1599,0,-5.1145,-5.1241,-5.1187,-5.1266,-5.1291,-5.12,-5.1299,-5.1313,-5.1343,-5.1362,-5.1303,-5.1416,-5.142,-5.1547,-5.16,-5.1618,-5.1643,-5.1582,-5.1814,-5.1836,-5.1857,-5.1931,-5.196,-5.1608,-5.1607,-5.1606,-5.1605,0,-5.1387,-5.1454,-5.1532,-5.1563,-5.1596,-5.1685,-5.1645,-5.1685,-5.1644,-5.1626,-5.1727,-5.1728,-5.1774,-5.1801,-5.1762,-5.1923,-5.1891,-5.1824,-5.172,-5.1899,-5.1967,-5.1995,-5.1621,-5.1618,-5.1615,-5.1613,0,0,-5.169,-5.1689,-5.1719,-5.1732,-5.1741,-5.1792,-5.1877,-5.1922,-5.1958,-5.1981,-5.2051,-5.213,-5.2068,-5.209,-5.2051,-5.2116,-5.2288,-5.2041,-5.204,-5.2088,-5.2467,-5.2518,-5.2552,-5.2247,-5.2252,-5.2256,-5.2466,0,-5.1898,-5.2043,-5.1997,-5.2144,-5.2206,-5.2119,-5.2193,-5.2207,-5.2192,-5.2242,-5.2224,-5.2282,-5.2195,-5.2208,-5.2269,-5.2254,-5.2363,-5.2238,-5.2312,-5.2316,-5.2313,-5.2587,-5.2642,-5.284,-5.2492,-5.2496,-5.25,0,-5.216,-5.2194,-5.2348,-5.2346,-5.237,-5.2438,-5.2475,-5.2523,-5.2537,-5.2521,-5.2546,-5.2493,-5.2575,-5.247,-5.2583,-5.2499,-5.2526,-5.2524,-5.253,-5.2537,-5.242,-5.2603,-5.2901,-5.2932,-5.2541,-5.2537,-5.2535,0,-5.2368,-5.2452,-5.2554,-5.2568,-5.2568,-5.2618,-5.262,-5.2628,-5.2657,-5.2689,-5.2708,-5.2749,-5.2773,-5.2806,-5.2765,-5.2692,-5.2885,-5.2776,-5.2875,-5.2877,-5.2921,-5.292,-5.3231,-5.2937,-5.2936,-5.2936,-5.2935,0,-5.2606,-5.2704,-5.2647,-5.2711,-5.2817,-5.2762,-5.2869,-5.2862,-5.2869,-5.293,-5.2856,-5.2915,-5.2857,-5.291,-5.2878,-5.2978,-5.2988,-5.2978,-5.2969,-5.2986,-5.2988,-5.3004,-5.299,-5.2944,-5.2942,-5.294,-5.2939,0,-5.2857,-5.2823,-5.293,-5.2921,-5.2921,-5.3,-5.2993,-5.3051,-5.303,-5.3107,-5.3122,-5.309,-5.3148,-5.3111,-5.3169,-5.3148,-5.3278,-5.3249,-5.3274,-5.3267,-5.3369,-5.336,-5.3703,-5.3745,-5.3423,-5.3426,-5.3429,0,-5.3013,-5.3086,-5.3085,-5.312,-5.3127,-5.3185,-5.3214,-5.3163,-5.3197,-5.3217,-5.3273,-5.3325,-5.3364,-5.3461,-5.3443,-5.3487,-5.3459,-5.3576,-5.3466,-5.348,-5.3463,-5.346,-5.3467,-5.3599,-5.3603,-5.3606,-5.3609,0,-5.3292,-5.3271,-5.3317,-5.3358,-5.3395,-5.3425,-5.3448,-5.3481,-5.3428,-5.347,-5.3529,-5.3559,-5.3619,-5.3671,-5.3708,-5.371,-5.3652,-5.3643,-5.3669,-5.3688,-5.37,-5.3696,-5.3337,-5.3636,-5.3633,-5.3631,-5.363,-5.3629,-5.35,-5.3561,-5.3571,-5.3624,-5.3636,-5.3659,-5.3713,-5.3699,-5.3747,-5.3792,-5.3758,-5.3828,-5.3838,-5.3882,-5.3891,-5.3945,-5.3898,-5.3934,-5.3944,-5.3954,-5.3969,-5.369,-5.3951,-5.3951,-5.395,-5.3949,-5.3948,0,-5.3777,-5.3778,-5.3828,-5.3863,-5.3905,-5.3845,-5.3867,-5.3907,-5.3969,-5.3984,-5.4023,-5.4091,-5.4141,-5.4127,-5.4172,-5.4218,-5.4192,-5.4231,-5.4228,-5.423,-5.4008,-5.3982,-5.4251,-5.4251,-5.4251,-5.4251,-5.4251,-5.4251,-5.3926,-5.4027,-5.4007,-5.4112,-5.4112,-5.418,-5.4198,-5.4219,-5.4231,-5.4309,-5.4351,-5.4341,-5.4344,-5.4388,-5.4432,-5.4426,-5.4446,-5.4496,-5.4481,-5.4275,-5.4245,-5.4217,-5.4192,-5.4501,-5.4501,-5.4698,-5.47,-5.4701]},{"header":{"parameterUnit":"m.s-1","parameterCategory":1,"la1":30.2991,"la2":30.254,"lo1":-89.0895,"lo2":-89.0444,"dy":0.0017,"dx":0.0017,"nx":28,"ny":28,"refTime":"2024-02-29T09:00:00:Z","depth":0,"parameterNumber":3,"parameterNumberName":"V-component_of_WINDS"},"data":[0,0,0,0,0,0,0,0,0,0,0,0,0,0,0,0,0,0,0,0,0,0,0,0,0,0,0,0,0,0,0,0,0,0,0,0,0,0,0,0,0,0,0,0,0,0,0,0,0,0,0,0,0,0,0,0,0,0,-6.0557,-6.0558,0,-6.0608,-6.0608,-6.0609,-6.0545,-6.0542,-6.054,-6.0538,-6.0585,-6.0589,-6.0592,0,0,0,0,0,0,0,0,0,0,0,0,0,-6.0399,-6.0403,-6.0557,-6.0558,-6.0558,-6.0608,-6.0608,-6.0609,-6.0545,-6.0542,-6.0539,-6.0537,-6.0584,-6.0588,-6.0592,0,0,0,0,0,0,0,0,0,0,0,0,0,-6.0461,-6.0404,-6.0557,-6.0532,-6.0531,-6.0608,-6.0608,-6.0609,-6.0546,-6.0542,-6.0539,-6.0535,-6.0583,-6.0588,-6.0593,-6.0695,0,0,-6.0609,-6.0611,0,0,0,0,0,0,0,0,-6.0457,-6.0467,-6.0535,-6.0534,-6.0532,-6.0566,-6.057,-6.0638,-6.0546,-6.054,-6.0538,-6.0534,-6.0582,-6.0587,-6.0604,-6.0697,-6.0699,-6.0609,-6.0612,-6.0615,-6.0616,0,0,0,0,0,0,0,-6.0453,-6.0464,-6.0577,-6.0536,-6.0535,-6.0517,-6.0522,-6.0583,-6.058,-6.054,-6.0536,-6.0543,-6.058,-6.0599,-6.0604,-6.07,-6.0609,-6.0614,-6.0617,-6.0619,-6.0878,-6.0881,0,0,0,0,0,0,-6.0452,-6.0461,-6.0575,-6.0578,-6.0486,-6.0523,-6.0528,-6.0559,-6.0579,-6.0579,-6.0546,-6.054,-6.0592,-6.0598,-6.0606,-6.0726,-6.0615,-6.0619,-6.0622,-6.0874,-6.0879,-6.0883,0,0,0,0,0,0,-6.0449,-6.0463,-6.0573,-6.0518,-6.0531,-6.0529,-6.0564,-6.0562,-6.0581,-6.0583,-6.0582,-6.0566,-6.0589,-6.0599,-6.0673,-6.0726,-6.0622,-6.0626,-6.087,-6.0876,-6.0881,-6.0967,0,0,0,0,0,0,-6.0445,-6.0463,-6.0503,-6.052,-6.0534,-6.0642,-6.0568,-6.0565,-6.059,-6.0583,-6.0602,-6.0601,-6.0587,-6.0666,-6.0678,-6.0731,-6.0631,-6.0865,-6.0872,-6.0879,-6.0959,-6.0974,-6.0988,0,0,0,0,0,-6.044,-6.0524,-6.0505,-6.0519,-6.0585,-6.0645,-6.0653,-6.0636,-6.0595,-6.0634,-6.0635,-6.0601,-6.0719,-6.0674,-6.0688,-6.0743,-6.0861,-6.087,-6.0878,-6.0953,-6.0971,-6.0987,0,0,0,0,0,0,-6.0512,-6.0526,-6.0505,-6.0598,-6.0621,-6.0634,-6.0683,-6.0657,-6.0691,-6.0683,-6.0659,-6.0664,-6.0744,-6.0751,-6.0701,-6.0842,-6.0783,-6.0795,-6.0835,-6.0853,-6.0867,-6.0863,-6.0635,0,0,0,0,0,-6.0539,-6.0588,-6.0597,-6.0678,-6.0691,-6.0685,-6.0711,-6.0696,-6.0718,-6.0727,-6.0734,-6.0756,-6.0797,-6.0825,-6.0864,-6.096,-6.0962,-6.1004,-6.1019,-6.103,-6.1041,-6.109,-6.1109,-6.0911,-6.0911,-6.091,0,0,-6.0594,-6.0608,-6.0641,-6.0693,-6.0709,-6.0759,-6.0694,-6.075,-6.0786,-6.0735,-6.0806,-6.0812,-6.0834,-6.092,-6.0958,-6.0928,-6.1096,-6.1041,-6.1051,-6.1054,-6.1101,-6.112,-6.1136,-6.0916,-6.0915,-6.0915,0,0,-6.0721,-6.0737,-6.0806,-6.0824,-6.0849,-6.0845,-6.0861,-6.0879,-6.0881,-6.0952,-6.0915,-6.0957,-6.103,-6.1047,-6.1065,-6.1198,-6.1167,-6.1211,-6.1286,-6.1335,-6.135,-6.1364,-6.141,-6.1427,-6.1221,-6.1221,-6.1221,0,-6.0787,-6.0862,-6.0844,-6.0903,-6.0926,-6.0884,-6.0952,-6.097,-6.1006,-6.1022,-6.0989,-6.1079,-6.1091,-6.1179,-6.1212,-6.1228,-6.1245,-6.1209,-6.135,-6.1363,-6.1376,-6.1419,-6.1437,-6.1226,-6.1226,-6.1225,-6.1225,0,-6.0941,-6.0994,-6.1046,-6.1083,-6.1112,-6.1176,-6.1166,-6.1197,-6.1179,-6.1178,-6.125,-6.1263,-6.1303,-6.1323,-6.1306,-6.1409,-6.139,-6.1354,-6.1294,-6.14,-6.1441,-6.1457,-6.1234,-6.1232,-6.123,-6.1229,0,0,-6.1115,-6.1142,-6.1161,-6.1177,-6.1202,-6.1241,-6.1302,-6.1342,-6.1369,-6.1395,-6.1444,-6.1506,-6.1473,-6.1493,-6.1478,-6.1521,-6.1624,-6.1479,-6.1479,-6.1505,-6.1736,-6.1763,-6.1782,-6.1603,-6.1607,-6.1609,-6.1734,0,-6.1241,-6.1348,-6.1333,-6.1434,-6.1482,-6.1442,-6.1494,-6.1514,-6.1514,-6.1553,-6.1552,-6.1596,-6.1549,-6.1561,-6.1602,-6.1603,-6.167,-6.1594,-6.1647,-6.1649,-6.1642,-6.1804,-6.1832,-6.195,-6.175,-6.1752,-6.1754,0,-6.1403,-6.1436,-6.1543,-6.156,-6.1579,-6.1627,-6.1662,-6.17,-6.1721,-6.1718,-6.1741,-6.1717,-6.1776,-6.1715,-6.1795,-6.1743,-6.1764,-6.1767,-6.1771,-6.1775,-6.1708,-6.1811,-6.1987,-6.2004,-6.1779,-6.1777,-6.1776,0,-6.1518,-6.1589,-6.1662,-6.1677,-6.1699,-6.1733,-6.1743,-6.176,-6.1785,-6.1815,-6.1831,-6.1867,-6.1887,-6.1915,-6.1901,-6.1859,-6.1982,-6.1921,-6.198,-6.198,-6.2007,-6.2006,-6.2188,-6.2022,-6.2022,-6.2022,-6.2021,0,-6.166,-6.1727,-6.1714,-6.1759,-6.1831,-6.1813,-6.1885,-6.189,-6.1906,-6.1949,-6.1916,-6.1958,-6.1937,-6.1977,-6.1966,-6.2032,-6.2042,-6.2039,-6.2036,-6.2042,-6.2042,-6.2055,-6.2046,-6.2026,-6.2025,-6.2025,-6.2024,0,-6.1801,-6.1795,-6.1872,-6.1886,-6.1891,-6.1944,-6.1955,-6.1996,-6.1993,-6.2049,-6.206,-6.2056,-6.21,-6.2089,-6.2138,-6.213,-6.2214,-6.22,-6.2207,-6.2204,-6.2263,-6.2257,-6.2459,-6.2484,-6.2303,-6.2305,-6.2307,0,-6.1892,-6.1942,-6.1962,-6.199,-6.2003,-6.2047,-6.2073,-6.2056,-6.2083,-6.2111,-6.2148,-6.219,-6.2222,-6.2295,-6.2295,-6.2331,-6.2317,-6.2386,-6.2322,-6.2327,-6.2317,-6.2314,-6.2318,-6.2398,-6.24,-6.2402,-6.2403,0,-6.2054,-6.2048,-6.2087,-6.2125,-6.2156,-6.2185,-6.221,-6.2234,-6.2219,-6.2251,-6.2297,-6.2322,-6.2372,-6.2413,-6.2446,-6.2454,-6.2426,-6.2423,-6.2438,-6.2445,-6.2447,-6.2446,-6.2241,-6.2418,-6.2417,-6.2416,-6.2415,-6.2414,-6.2171,-6.2214,-6.2234,-6.2278,-6.2296,-6.232,-6.2359,-6.2361,-6.24,-6.2439,-6.2427,-6.2479,-6.2496,-6.2538,-6.2551,-6.259,-6.2564,-6.2587,-6.2592,-6.2598,-6.2605,-6.2441,-6.2596,-6.2596,-6.2595,-6.2595,-6.2595,0,-6.233,-6.2342,-6.2382,-6.2419,-6.2453,-6.2425,-6.2451,-6.2481,-6.2527,-6.2547,-6.258,-6.2632,-6.2672,-6.2675,-6.2712,-6.2742,-6.273,-6.2752,-6.2749,-6.2752,-6.2626,-6.2609,-6.2762,-6.2762,-6.2762,-6.2762,-6.2762,-6.2762,-6.2417,-6.2487,-6.2484,-6.2562,-6.2572,-6.2624,-6.2641,-6.2662,-6.2678,-6.2738,-6.2771,-6.2773,-6.2786,-6.2823,-6.2858,-6.2858,-6.2872,-6.29,-6.2894,-6.2777,-6.2761,-6.2745,-6.2728,-6.2903,-6.2903,-6.3016,-6.3017,-6.3018]}]]